Flag for Romania Weather past 2 weeks in Oradea, Romania

Now
52 °F

Partly sunny.


Feels Like: 51 °F
Forecast: 37 / 53 °F
Wind: 5 mph from Southeast

Location: Oradea Airport

Current Time: Oct 25, 2014 at 2:41:37 PM

Latest Report: Oct 25, 2014 at 2:00 PM


Visibility: N/A

Pressure: 30.24 "Hg

Humidity: 77%

Dew point: 45 °F

Location of OradeaLocation

Historic Weather in Oradea — Graph

°F

Oradea temperature yesterday

Maximum temperature yesterday: 52 °F (at 12:00 AM)
Minimum temperature yesterday: 45 °F (at 9:30 PM)
Average temperature yesterday: 48 °F

Past Weeks' High & Low Weather Summary

 TemperatureHumidityPressure
High79 °F (Oct 11, 3:00 PM)100% (Oct 16, 10:30 PM)30.39 "Hg (Oct 16, 10:30 PM)
Low36 °F (Oct 25, 8:00 AM)39% (Oct 11, 3:00 PM)29.50 "Hg (Oct 22, 11:00 AM)
Average58 °F81%29.96 "Hg
* Reported Oct 10 1:00 PM — Oct 25 1:30 PM, Oradea, Weather by CustomWeather, © 2014

Note: Actual official high and low records may vary slightly from our data, if they occured in-between our weather recording intervals... More about our weather records

Advertising

Oradea weather history for previous 24 hours

 ConditionsComfort  
Time TempWeatherWind HumidityBarometerVisibility
1:30 PM
Oct 25
50 °FPartly sunny.2 mph82%30.24 "HgN/A
1:00 PM50 °FPartly sunny.5 mph82%30.27 "HgN/A
12:30 PM48 °FMostly cloudy.5 mph87%30.27 "HgN/A
12:00 PM46 °FPartly sunny.5 mph93%30.27 "Hg6 mi
11:30 AM46 °FLow clouds.5 mph93%30.24 "HgN/A
11:00 AM45 °FPartly sunny.5 mph100%30.24 "Hg5 mi
10:30 AM45 °FFog.2 mph93%30.24 "Hg2 mi
10:00 AM43 °FFog.No wind100%30.24 "Hg1 mi
9:30 AM43 °FFog.2 mph93%30.24 "Hg1 mi
9:00 AM41 °FFog.2 mph93%30.21 "Hg1 mi
8:30 AM37 °FFog.No wind93%30.21 "Hg0 mi
8:00 AM36 °FFog.5 mph100%30.18 "Hg2 mi
7:30 AM37 °FClear.No wind93%30.18 "Hg10 mi
7:00 AM37 °FClear.2 mph93%30.18 "Hg10 mi
6:30 AM37 °FClear.5 mph93%30.18 "Hg10 mi
6:00 AM39 °FClear.5 mph93%30.18 "Hg10 mi
5:30 AM39 °FClear.5 mph93%30.15 "Hg10 mi
5:00 AM41 °FClear.5 mph93%30.18 "Hg10 mi
4:00 AM43 °FPassing clouds.7 mph87%30.18 "HgN/A
3:00 AM43 °FPassing clouds.7 mph93%30.18 "HgN/A
2:00 AM45 °FPassing clouds.9 mph87%30.15 "HgN/A
1:00 AM43 °FQuite cool.9 mph93%30.15 "HgN/A
12:00 AM45 °FOvercast.9 mph93%30.15 "HgN/A
11:00 PM
Oct 24
46 °FPassing clouds.7 mph93%30.15 "HgN/A
10:30 PM46 °FPassing clouds.9 mph87%30.15 "HgN/A
10:00 PM45 °FPassing clouds.7 mph93%30.12 "HgN/A
9:30 PM45 °FClear.7 mph93%30.12 "Hg10 mi
9:00 PM46 °FPassing clouds.7 mph87%30.09 "HgN/A
8:30 PM46 °FPassing clouds.9 mph87%30.09 "HgN/A
8:00 PM48 °FPartly cloudy.9 mph94%30.09 "HgN/A
7:30 PM50 °FPartly cloudy.2 mph88%30.09 "HgN/A
7:00 PM50 °FMostly cloudy.2 mph88%30.09 "HgN/A
6:30 PM50 °FBroken clouds.5 mph88%30.09 "HgN/A
6:00 PM50 °FBroken clouds.2 mph88%30.07 "HgN/A
5:30 PM50 °FPartly sunny.2 mph88%30.07 "HgN/A
5:00 PM50 °FMostly cloudy.No wind88%30.07 "HgN/A
4:30 PM50 °FPartly sunny.No wind88%30.07 "HgN/A
4:00 PM50 °FPartly sunny.5 mph88%30.07 "HgN/A
3:30 PM50 °FPartly sunny.5 mph88%30.04 "HgN/A
3:00 PM48 °FLight rain. Mostly cloudy.5 mph94%30.04 "Hg4 mi
2:30 PM50 °FLow clouds.5 mph88%30.04 "HgN/A
Weather by CustomWeather, © 2014

See weather overviewHow to use our weather pages